Probability
0 0 0 0 0 0 0 0 0 0 0 0 0 0 0 0 0 0 0 0 0 0 0 0 0 0 0 0 0 0 0 0 0 0 0 0 0 0
0 0 0 0 0 0 0 0 0 0 0 0 0 0 0 0 0 0 0 0 0 0 0 0 0 0 0 0 0 0 0 0 0 0 0 0 0 0
0 0 0 0 0 0 0 0 0 0 0 0 0 0 0 0 0 0 0 0 0 0 0 0 0 0 0 0 0 0 0 0 0 0 0 0 0 0
0 0 0 0 0 0 0 0 0 0 0 0 0 0 0 0 0 0 0 0 0 0 0 0 0 0 0 0 0 0 0 0 0 0 0 0 0 0
0 0 0 0 0 0 0 0 0 0 0 0 0 0 0 0 0 0 0 0 0 0 0 0 0 0 0 0 0 0 0 0 0 0 0 0 0 0
0 0 0 0 0 0 0 0 0 0 0 0 0 0 0 0 0 0 0 0 0 0 0 0 0 0 0 0 0 0 0 0 0 0 0 0 0 0
0 0 0 0 0 0 0 0 0 0 0 0 0 0 0 0 0 0 0 0 0 0 0 0 0 0 0 0 0 0 0 0 0 0 0 0 0 0
0 0 0 0 0 0 0 0 0 0 0 0 0 0 0 0 0 0 0 0 0 0 0 0 0 0 0 0 0 0 0 0 0 0 0 0 0 0
0 0 0 0 0 0 0 0 0 0 0 0 0 0 0 0 0 0 0 0 0 0 0 0 0 0 0 0 0 0 0 0 0 0 0 0 0 0
0 0 0 0 0 0 0 0 0 0 0 0 0 0 0 0 0 0 0 0 0 0 0 0 0 0 0 0 0 0 0 0 0 0 0 0 0 0
0 0 0 0 0 0 0 0 0 0 0 0 0 0 0 0 0 0 0 0 0 0 0 0 0 0 0 0 0 0 0 0 0 0 0 0 0 0
0 0 0 0 0 0 0 0 0 0 0 0 0 0 0 0 0 0 0 0 0 0 0 0 0 0 0 0 0 0 0 0 0 0 0 0 0 0
0 0 0 0 0 0 0 0 0 0 0 0 0 0 0 0 0 0 0 0 0 0 0 0 0 0 0 0 0 0 0 0 0 0 0 0 0 0
0 0 0 0 0 0 0 0 0 0 0 0 0 0 0 0 0 0 0 0 0 0 0 0 0 0 0 0 0 0 0 0 0 0 0 0 0 0
0 0 0 0 0 0 0 0 0 0 0 0 0 0 0 0 0 0 0 0 0 0 0 0 0 0 0 0 0 0 0 0 0 0 0 0 0 0
0 0 0 0 0 0 0 0 0 0 0 0 0 0 0 0 0 0 0 0 0 0 0 0 0 0 0 0 0 0 0 0 0 0 0 0 0 0
0 0 0 0 0 0 0 0 0 0 0 0 0 0 0 0 0 0 0 0 0 0 0 0 0 0 0 0 0 0 0 0 0 0 0 0 0 0
0 0 0 0 0 0 0 0 0 0 0 0 0 0 0 0 0 0 0 0 0 0 0 0 0 0 0 0 0 0 0 0 0 0 0 0 0 0
0 0 0 0 0 0 0 0 0 0 0 0 0 0 0 0 0 0 0 0 0 0 0 0 0 0 0 0 0 0 0 0 0 0 0 0 0 0
0 0 0 0 0 0 0 0 0 0 0 0 0 0 0 0 0 0 0 0 0 0 0 0 0 0 0 0 0 0 0 0 0 0 0 0 0 0
0 0 0 0 0 0 0 0 0 0 0 0 0 0 0 0 0 0 0 0 0 0 0 0 0 0 0 0 0 0 0 0 0 0 0 0 0 0
0 0 0 0 0 0 0 0 0 0 0 0 0 0 0 0 0 0 0 0 0 0 0 0 0 0 0 0 0 0 0 0 0 0 0 0 0 0
0 0 0 0 0 0 0 0 0 0 0 0 0 0 0 0 0 0 0 0 0 0 0 0 0 0 0 0 0 0 0 0 0 0 0 0 0 0
Height
5706 5704 5702 5700 5698 5696 5693 5691 5689 5687 5686 5683 5679 5676 5672 5669 5666 5663 5661 5658 5656 5654 5652 5650 5649 5647 5646 5645 5644 5643 5642 5641 5640 5640 5639 5638 5638 5637
5695 5694 5692 5690 5687 5685 5682 5680 5677 5675 5673 5671 5668 5664 5661 5657 5654 5651 5648 5646 5644 5641 5640 5638 5636 5634 5633 5632 5631 5630 5629 5628 5627 5626 5626 5625 5625 5625
5685 5683 5681 5678 5676 5673 5671 5668 5665 5663 5660 5658 5655 5652 5649 5646 5642 5639 5636 5634 5632 5629 5627 5625 5623 5622 5620 5619 5618 5617 5616 5615 5614 5613 5612 5612 5612 5612
5673 5672 5669 5667 5664 5662 5659 5656 5653 5650 5647 5645 5642 5639 5636 5633 5630 5627 5624 5622 5619 5617 5614 5612 5611 5609 5607 5606 5605 5604 5602 5601 5600 5599 5599 5599 5598 5598
5661 5659 5657 5654 5652 5649 5646 5643 5640 5637 5634 5632 5630 5626 5624 5620 5618 5615 5612 5609 5606 5604 5602 5600 5598 5596 5594 5593 5591 5590 5589 5588 5587 5586 5585 5585 5584 5584
5648 5646 5644 5641 5639 5636 5633 5630 5627 5624 5621 5619 5616 5613 5610 5607 5604 5602 5599 5596 5594 5591 5589 5587 5585 5583 5581 5579 5578 5576 5575 5573 5572 5571 5571 5571 5570 5570
5635 5633 5630 5628 5625 5622 5619 5616 5613 5611 5608 5605 5603 5600 5597 5594 5591 5588 5586 5583 5581 5578 5576 5573 5571 5569 5567 5565 5563 5562 5560 5559 5557 5557 5556 5556 5556 5556
5621 5618 5616 5614 5611 5608 5605 5602 5599 5597 5594 5592 5589 5587 5584 5581 5577 5574 5572 5570 5568 5566 5562 5560 5557 5555 5553 5551 5549 5547 5545 5544 5543 5542 5541 5541 5541 5541
5606 5604 5601 5599 5596 5594 5591 5588 5586 5583 5580 5578 5575 5573 5570 5567 5564 5561 5558 5556 5553 5551 5549 5547 5543 5541 5538 5536 5534 5532 5530 5529 5528 5528 5527 5526 5526 5526
5591 5589 5586 5584 5582 5579 5577 5574 5572 5569 5566 5564 5561 5559 5556 5553 5550 5547 5544 5542 5539 5536 5534 5533 5529 5527 5524 5521 5519 5517 5516 5515 5514 5513 5512 5512 5511 5511
5576 5573 5571 5569 5567 5564 5562 5560 5558 5555 5552 5549 5547 5544 5541 5539 5536 5533 5530 5528 5526 5523 5520 5518 5516 5513 5510 5508 5505 5503 5502 5501 5500 5499 5498 5497 5497 5496
5561 5558 5556 5554 5552 5549 5547 5545 5543 5541 5538 5536 5533 5531 5528 5525 5522 5519 5516 5514 5511 5509 5507 5504 5502 5499 5498 5495 5492 5490 5488 5487 5486 5485 5484 5483 5482 5481
5545 5543 5541 5539 5537 5535 5533 5531 5528 5526 5524 5522 5520 5517 5515 5512 5509 5506 5503 5501 5498 5496 5494 5491 5489 5486 5484 5482 5480 5477 5476 5474 5473 5471 5470 5469 5468 5467
5530 5528 5526 5524 5522 5520 5518 5516 5514 5512 5510 5509 5507 5504 5501 5499 5496 5493 5491 5488 5486 5483 5481 5479 5477 5474 5471 5469 5467 5465 5463 5461 5460 5458 5457 5456 5455 5453
5514 5513 5511 5509 5508 5506 5504 5502 5500 5498 5497 5495 5493 5491 5488 5486 5483 5481 5479 5476 5474 5471 5469 5467 5465 5462 5459 5457 5455 5453 5452 5450 5447 5446 5445 5443 5442 5441
5499 5498 5496 5495 5493 5492 5490 5488 5486 5485 5484 5482 5480 5478 5476 5474 5472 5469 5467 5465 5463 5461 5458 5455 5453 5451 5448 5446 5444 5442 5440 5438 5436 5434 5433 5432 5430 5429
5484 5484 5482 5481 5480 5478 5476 5475 5473 5472 5471 5469 5467 5466 5464 5462 5460 5458 5456 5454 5452 5450 5447 5445 5442 5440 5437 5435 5433 5431 5429 5427 5425 5424 5422 5421 5420 5418
5470 5470 5469 5467 5466 5465 5463 5462 5461 5460 5458 5457 5455 5454 5452 5450 5449 5447 5445 5443 5441 5439 5437 5434 5432 5430 5428 5426 5423 5421 5419 5417 5415 5413 5411 5411 5410 5407
5457 5456 5455 5453 5453 5452 5451 5450 5449 5448 5446 5445 5444 5443 5441 5440 5438 5436 5435 5433 5431 5429 5427 5424 5422 5420 5418 5417 5414 5411 5409 5407 5405 5404 5402 5400 5399 5397
5443 5442 5441 5440 5439 5439 5438 5438 5437 5436 5435 5434 5433 5432 5431 5429 5428 5426 5425 5423 5421 5419 5417 5415 5413 5411 5409 5407 5405 5403 5400 5398 5396 5395 5393 5391 5389 5388
5429 5428 5428 5427 5427 5427 5426 5426 5425 5425 5424 5423 5422 5421 5420 5419 5418 5417 5415 5413 5412 5410 5408 5406 5404 5402 5400 5398 5397 5395 5392 5389 5387 5386 5384 5382 5381 5379
5416 5415 5415 5415 5415 5415 5415 5414 5414 5414 5413 5413 5412 5411 5410 5409 5408 5407 5406 5404 5402 5401 5399 5397 5395 5393 5392 5390 5388 5386 5384 5382 5380 5377 5375 5374 5372 5370
5403 5402 5403 5403 5403 5403 5403 5403 5403 5403 5403 5402 5402 5402 5401 5400 5399 5398 5397 5395 5394 5392 5391 5389 5388 5386 5384 5382 5380 5378 5376 5374 5372 5370 5368 5366 5364 5361
Wind_Speed
40 40 39 39 39 40 41 41 42 42 42 42 43 44 45 45 45 45 44 44 43 43 44 44 45 45 46 46 45 45 46 46 46 46 46 45 46 46
41 41 41 41 42 42 43 43 44 44 44 44 44 45 45 45 45 45 44 44 44 44 44 45 45 46 46 46 46 46 46 47 47 47 47 47 46 47
42 42 43 43 44 44 44 45 45 46 46 45 45 45 45 45 45 45 45 44 44 44 45 45 45 45 46 46 46 47 48 48 48 48 48 48 47 47
44 45 45 45 45 45 45 45 46 46 46 45 45 45 45 45 45 45 45 45 44 44 44 44 44 44 45 46 46 47 48 48 49 48 48 47 47 48
46 47 46 46 46 46 46 47 47 47 47 46 46 46 47 46 46 46 45 45 45 45 45 45 45 45 46 46 47 47 48 48 49 49 48 48 47 47
48 48 48 48 48 48 48 48 48 48 47 47 47 47 47 47 47 47 46 46 46 46 46 46 45 46 46 46 47 47 47 47 48 49 49 48 48 47
49 50 50 50 50 50 49 48 48 48 48 48 48 47 47 47 47 47 47 46 46 47 47 46 46 46 47 47 48 48 48 48 48 48 49 49 49 49
51 51 51 51 51 50 50 50 50 49 49 49 49 48 48 48 48 47 46 46 46 46 47 47 47 47 47 47 48 48 48 48 48 47 47 48 48 48
52 52 52 51 52 51 51 51 50 50 50 50 49 48 48 48 47 47 47 46 46 47 47 47 48 48 48 48 47 47 47 47 47 47 47 47 48 48
52 52 52 52 52 52 51 51 50 50 50 50 49 49 48 48 47 47 47 47 47 47 47 47 47 48 48 47 47 46 46 46 46 47 47 47 47 47
52 52 52 52 52 51 51 50 50 49 49 49 49 48 48 47 47 46 46 47 46 46 46 46 45 45 45 45 45 45 45 45 46 46 46 46 46 47
52 52 52 51 51 50 50 50 49 49 49 48 48 48 47 47 46 46 46 46 46 46 45 45 44 43 43 42 43 44 44 43 44 44 45 45 45 45
51 51 51 51 50 50 49 49 49 48 48 47 47 47 47 47 46 46 45 45 44 44 43 42 42 42 42 41 42 43 43 43 44 44 44 44 44 44
51 51 50 50 49 49 48 48 48 48 47 46 46 46 46 45 44 44 43 43 43 42 41 41 42 42 41 41 41 42 42 43 43 43 43 43 43 43
50 49 49 48 48 47 47 47 47 46 46 45 45 44 44 43 42 42 41 41 41 41 40 41 41 40 40 40 40 40 41 41 41 41 40 40 40 41
48 47 47 46 46 46 46 46 45 45 44 43 43 42 42 41 40 40 39 39 39 40 40 40 40 39 38 38 38 39 39 39 38 38 38 37 38 38
47 46 45 45 44 44 44 43 42 42 42 41 41 40 39 39 38 38 38 38 38 37 37 38 37 37 36 36 36 37 37 37 37 37 36 35 36 36
45 45 44 44 43 42 41 41 40 40 40 39 38 38 37 36 36 36 36 36 35 36 36 36 36 35 34 34 35 35 35 35 35 35 34 34 33 34
44 43 43 42 41 40 40 39 39 39 38 37 36 36 35 35 35 35 34 34 34 34 34 34 33 32 32 32 32 34 33 33 33 32 32 32 31 32
43 42 41 40 40 39 39 38 38 38 37 36 35 34 34 34 33 33 33 33 33 33 32 32 32 31 31 30 30 31 32 31 31 30 30 30 30 30
41 41 40 39 38 38 38 37 37 36 35 34 34 33 33 33 32 32 32 32 32 32 31 31 30 29 29 28 28 28 29 29 28 28 28 28 27 27
40 39 38 37 37 36 36 35 34 33 32 32 32 31 31 31 31 30 30 30 30 29 28 28 28 27 26 26 26 26 26 26 27 27 26 26 26 25
38 37 36 36 35 35 34 34 32 31 30 30 30 30 30 29 29 28 28 28 27 27 26 26 26 25 25 26 25 25 25 25 25 25 25 25 25 25
Wind_Direction
281 281 283 284 285 285 285 285 285 284 284 286 287 288 289 289 288 287 285 284 282 281 280 279 277 275 275 275 275 275 274 275 275 275 274 273 273 272
282 283 284 285 286 286 286 286 286 287 286 286 287 287 288 288 288 287 285 285 284 282 281 280 279 277 276 275 275 274 274 275 274 274 273 272 272 272
283 284 285 285 286 286 287 287 287 287 288 287 287 287 286 286 287 286 286 285 285 284 282 281 279 278 277 275 274 274 274 274 274 273 274 273 272 271
283 284 285 285 286 287 287 287 288 288 288 287 286 286 286 286 286 285 286 285 284 283 282 281 279 278 277 276 275 275 274 274 273 273 273 273 272 271
283 284 284 285 285 286 286 286 287 287 287 287 286 286 285 285 285 285 285 284 283 282 281 281 280 279 278 277 276 276 275 275 273 273 273 273 272 271
283 283 283 284 285 285 286 286 286 286 286 286 286 286 286 285 285 285 284 283 283 282 281 281 281 280 279 278 277 277 277 276 275 273 272 272 271 270
282 283 284 284 284 285 285 285 285 285 285 286 286 286 286 285 285 285 284 283 283 282 281 281 281 281 280 280 278 278 277 276 275 274 272 272 271 270
282 282 283 283 284 284 285 285 285 285 285 285 286 286 286 286 286 285 284 283 283 282 282 282 282 282 281 280 279 277 277 276 276 274 272 271 271 271
281 282 282 282 283 284 284 285 285 285 285 285 285 286 286 286 285 284 283 283 283 282 281 282 282 282 281 280 280 278 277 276 275 274 273 273 272 272
281 281 281 282 282 283 283 284 284 284 284 285 285 285 285 285 285 283 283 282 283 283 282 282 282 282 281 280 280 279 277 276 276 275 274 274 273 273
280 280 281 281 281 282 282 283 283 282 282 283 284 284 284 284 284 283 283 283 283 283 283 283 283 282 281 281 281 281 279 277 276 276 275 274 274 273
280 280 280 281 281 281 282 282 282 282 282 282 283 283 283 283 282 283 283 283 284 283 283 284 283 282 282 281 280 280 280 279 278 277 276 275 275 274
279 279 279 280 280 280 281 281 281 281 281 282 282 283 283 283 282 282 283 283 284 284 284 283 283 283 282 281 280 280 280 280 280 279 278 277 276 275
278 278 279 279 279 279 279 280 280 280 280 281 282 283 283 282 282 282 283 284 284 284 284 283 284 284 282 281 280 280 280 280 280 279 278 277 276 275
277 277 278 278 278 277 278 279 279 279 280 281 281 282 282 282 282 282 283 284 284 284 284 284 285 284 282 282 281 280 280 280 280 280 279 278 277 275
276 277 277 278 277 277 278 278 278 279 280 281 281 281 281 281 281 282 283 284 284 284 284 285 285 285 283 283 282 281 281 281 280 280 279 279 278 276
276 277 277 277 277 277 278 277 278 279 280 280 280 281 281 281 281 281 283 283 283 283 284 285 285 285 285 284 284 284 284 283 282 281 280 279 279 278
277 277 277 276 276 276 276 277 278 278 279 280 280 280 280 280 280 281 282 283 284 285 285 285 285 285 285 285 285 285 285 284 284 283 281 280 279 279
277 277 276 275 274 274 275 276 276 277 278 278 279 279 279 280 280 281 281 283 284 286 287 286 286 285 285 286 286 286 286 285 285 285 284 283 282 280
276 276 275 273 272 273 273 274 275 276 276 276 277 278 279 280 280 281 281 282 284 285 286 286 286 286 286 287 287 287 287 286 286 286 286 285 284 283
274 274 273 272 272 272 272 273 274 275 274 274 276 277 278 279 280 281 281 282 283 284 284 286 287 287 287 288 288 288 287 287 288 287 287 286 285 284
273 272 271 270 270 271 272 272 273 273 272 272 274 275 276 278 279 280 282 282 283 284 284 285 286 287 288 289 289 288 288 288 289 289 290 289 289 287
272 271 268 267 268 269 270 271 271 271 271 271 272 274 275 276 278 279 281 281 282 282 284 284 285 287 288 290 290 288 288 288 288 288 289 290 292 293